Regional Weather Roundup
Issued by NWS

Home | Current Version | Previous Version | Graphics & Text | Print | Product List | Glossary On
Versions: 1 2 3 4 5 6 7 8 9 10 11 12 13 14 15 16 17 18 19 20 21 22 23 24 25 26 27 28 29 30 31 32 33 34 35 36 37 38 39 40 41 42 43 44 45 46 47 48 49 50
000
ASUS44 KMEG 310200
RWRTN
TENNESSEE HOURLY STATE WEATHER ROUNDUP
NATIONAL WEATHER SERVICE MEMPHIS TN
900 PM CDT WED JUL 30 2014

TNZ002-004-019-021-049-052-054-088>092-310300-
WEST TENNESSEE

CITY           SKY/WX    TMP DP  RH WIND       PRES   REMARKS
MEMPHIS INTL   CLOUDY    77  59  53 W3        30.06S
NWS MEMPHIS      N/A     74 N/A N/A MISG        N/A
JACKSON        CLOUDY    71  65  81 CALM      30.07S
DYERSBURG      CLOUDY    72  57  60 CALM      30.07F
UNION CITY     PTCLDY    72  66  83 CALM      30.06S
PARIS          MOCLDY    66  61  82 CALM      30.08S
LEXINGTON      CLEAR     70  64  83 CALM      30.07S
SAVANNAH       CLEAR     68  66  94 CALM      30.08R
$$

TNZ008-025-027-028-033-062-065-066-310300-
NORTH MIDDLE TENNESSEE

CITY           SKY/WX    TMP DP  RH WIND       PRES   REMARKS
NASHVILLE      MOCLDY    72  56  57 CALM      30.08R
CLARKSVILLE    MOCLDY    69  58  67 CALM      30.07S
COOKEVILLE     CLEAR     66  64  94 CALM      30.10R
CROSSVILLE     MOCLDY    66  60  81 CALM      30.13S
$$

TNZ061-075-076-078-094-096-097-310300-
SOUTH MIDDLE TENNESSEE

CITY           SKY/WX    TMP DP  RH WIND       PRES   REMARKS
FAYETTEVILLE   CLEAR     70  57  64 N7        30.08S
TULLAHOMA      CLEAR     66  61  82 CALM      30.10S
WINCHESTER     CLEAR     68  61  77 CALM      30.09R
MCMINNVILLE    CLEAR     66  64  94 CALM      30.10R
COLUMBIA       CLEAR     72  64  78 CALM      30.07S
SHELBYVILLE    CLEAR     70  64  83 CALM      30.09S
$$

TNZ017-018-042-046-047-310300-
NORTHEAST TENNESSEE

CITY           SKY/WX    TMP DP  RH WIND       PRES   REMARKS
TRI CITIES     MOCLDY    63  56  78 N3        30.12R
ELIZABETHTON   CLEAR     57  54  88 CALM        N/A
$$

TNZ012-013-036-069-073-074-310300-
CENTRAL EAST TENNESSEE

CITY           SKY/WX    TMP DP  RH WIND       PRES   REMARKS
KNOXVILLE      CLOUDY    67  60  78 NE3       30.09R
OAK RIDGE      MOCLDY    67  61  81 CALM      30.11R
GATLINBURG     CLEAR     64  61  88 CALM      30.10R
$$

TNZ083-085-099-310300-
SOUTHEAST TENNESSEE

CITY           SKY/WX    TMP DP  RH WIND       PRES   REMARKS
CHATTANOOGA    MOCLDY    73  58  59 NE6       30.07S
$$

SKY/WX REPORTED AS FAIR MEANS FEW OR NO CLOUDS BELOW
12 THOUSAND FEET.




USA.gov is the U.S. government's official web portal to all federal, state and local government web resources and services.